[[{"header":{"parameterUnit":"m.s-1","parameterCategory":1,"la1":30.2991,"la2":30.254,"lo1":-89.0895,"lo2":-89.0444,"dy":0.0017,"dx":0.0017,"nx":28,"ny":28,"refTime":"2023-09-09T03:00:00:Z","depth":0,"parameterNumber":2,"parameterNumberName":"U-component_of_WINDS"},"data":[0,0,0,0,0,0,0,0,0,0,0,0,0,0,0,0,0,0,0,0,0,0,0,0,0,0,0,0,0,0,0,0,0,0,0,0,0,0,0,0,0,0,0,0,0,0,0,0,0,0,0,0,0,0,0,0,0,0,0.8709,0.8709,0,0.8739,0.874,0.874,0.8647,0.8644,0.8641,0.8638,0.8667,0.8671,0.8674,0,0,0,0,0,0,0,0,0,0,0,0,0,0.8571,0.8574,0.8709,0.871,0.871,0.8739,0.874,0.874,0.8647,0.8644,0.864,0.8637,0.8666,0.867,0.8674,0,0,0,0,0,0,0,0,0,0,0,0,0,0.8619,0.8575,0.8709,0.8667,0.8664,0.8739,0.874,0.874,0.8648,0.8644,0.8639,0.8635,0.8665,0.867,0.8675,0.8792,0,0,0.8691,0.8693,0,0,0,0,0,0,0,0,0.8617,0.8624,0.8673,0.867,0.8666,0.8685,0.8702,0.8757,0.8649,0.8654,0.8638,0.8633,0.8676,0.868,0.8695,0.8793,0.8794,0.8691,0.8694,0.8696,0.8698,0,0,0,0,0,0,0,0.8613,0.8623,0.8721,0.8674,0.867,0.8647,0.8649,0.8712,0.8689,0.8653,0.8646,0.8651,0.8674,0.8691,0.8695,0.8795,0.8691,0.8695,0.8699,0.8701,0.8995,0.8999,0,0,0,0,0,0,0.8616,0.862,0.872,0.8722,0.8631,0.8653,0.8655,0.8683,0.8688,0.8684,0.8655,0.8647,0.8684,0.8689,0.8696,0.8837,0.8696,0.8701,0.8704,0.899,0.8996,0.9001,0,0,0,0,0,0,0.8613,0.8625,0.8719,0.8669,0.868,0.866,0.8692,0.8686,0.8703,0.8689,0.8684,0.8676,0.8681,0.8689,0.877,0.8836,0.8703,0.8708,0.8984,0.8992,0.8998,0.9117,0,0,0,0,0,0,0.861,0.8625,0.8669,0.8671,0.8683,0.8793,0.8696,0.869,0.8712,0.8702,0.8708,0.8705,0.8678,0.8763,0.8775,0.8841,0.8712,0.8978,0.8988,0.8996,0.9107,0.9128,0.9145,0,0,0,0,0,0.8605,0.87,0.8672,0.8684,0.8737,0.8796,0.8803,0.8771,0.8718,0.8762,0.8754,0.8705,0.8827,0.8772,0.8785,0.8853,0.8974,0.8985,0.8995,0.9099,0.9124,0.9145,0,0,0,0,0,0,0.8704,0.8699,0.8668,0.8766,0.8783,0.8781,0.8835,0.8797,0.8828,0.8817,0.8775,0.8777,0.8867,0.8867,0.8807,0.8969,0.8891,0.8905,0.8966,0.8989,0.9007,0.9007,0.8716,0,0,0,0,0,0.8738,0.8787,0.8779,0.8867,0.8877,0.8855,0.888,0.8854,0.8869,0.8875,0.8872,0.8889,0.8931,0.8959,0.8997,0.9106,0.9108,0.916,0.9179,0.9194,0.9208,0.927,0.9294,0.9036,0.9036,0.9036,0,0,0.8807,0.881,0.8843,0.8887,0.8897,0.8949,0.8861,0.8919,0.8958,0.8883,0.8961,0.896,0.8975,0.9073,0.9115,0.9076,0.9279,0.9208,0.9221,0.9225,0.9283,0.9308,0.933,0.9043,0.9042,0.9041,0,0,0.8961,0.8967,0.9043,0.9056,0.9072,0.9058,0.9076,0.9081,0.9078,0.9156,0.9102,0.9147,0.922,0.9234,0.9251,0.9415,0.9372,0.9428,0.9527,0.9588,0.9609,0.9627,0.9689,0.9711,0.9441,0.9441,0.9441,0,0.9045,0.9122,0.9086,0.915,0.9172,0.9109,0.9186,0.9199,0.9227,0.9244,0.92,0.9293,0.9298,0.94,0.9441,0.9455,0.9477,0.9428,0.9609,0.9626,0.9642,0.9701,0.9724,0.9448,0.9447,0.9447,0.9446,0,0.9227,0.9281,0.934,0.9372,0.94,0.947,0.9446,0.9479,0.9452,0.9443,0.9524,0.9529,0.9569,0.959,0.9562,0.969,0.9666,0.9616,0.9537,0.9675,0.973,0.9751,0.9458,0.9456,0.9454,0.9452,0,0,0.9443,0.9457,0.9479,0.9495,0.951,0.9552,0.962,0.966,0.9692,0.9713,0.9771,0.9836,0.9791,0.9811,0.9784,0.9837,0.9972,0.9781,0.9781,0.982,1.0117,1.0157,1.0183,0.9943,0.9947,0.995,1.0117,0,0.9598,0.9716,0.9688,0.9806,0.9858,0.9799,0.9859,0.9876,0.987,0.9913,0.9905,0.9954,0.9889,0.9901,0.9951,0.9945,1.0032,0.9932,0.9998,1.0001,1.0,1.0211,1.0253,1.041,1.0138,1.0141,1.0144,0,0.9794,0.9827,0.995,0.9962,0.9982,1.0037,1.0074,1.0115,1.0134,1.0126,1.015,1.0114,1.0183,1.0103,1.0199,1.0132,1.0157,1.0159,1.0164,1.0171,1.0083,1.0227,1.0458,1.0484,1.0176,1.0174,1.0171,0,0.9944,1.0019,1.0104,1.0118,1.0132,1.0172,1.018,1.0194,1.0222,1.0254,1.0272,1.0311,1.0333,1.0364,1.0341,1.0284,1.0442,1.0359,1.044,1.0441,1.0477,1.0476,1.0719,1.0488,1.0488,1.0488,1.0487,0,1.0122,1.02,1.0172,1.0225,1.0312,1.0279,1.0367,1.0367,1.0381,1.0434,1.0384,1.0435,1.0399,1.0447,1.0428,1.0513,1.0522,1.0519,1.0514,1.0525,1.0527,1.0543,1.0533,1.0494,1.0492,1.0491,1.049,0,1.0305,1.0289,1.0378,1.0385,1.0389,1.0454,1.046,1.051,1.0501,1.0568,1.0582,1.0568,1.0622,1.0601,1.0657,1.0645,1.0755,1.0733,1.075,1.0746,1.0829,1.0823,1.1094,1.113,1.0873,1.0875,1.0877,0,1.042,1.048,1.0496,1.0528,1.054,1.0592,1.0622,1.0592,1.0624,1.0652,1.0699,1.0749,1.0788,1.0877,1.0872,1.0916,1.0897,1.0989,1.0903,1.0915,1.0903,1.0902,1.0909,1.1007,1.101,1.1013,1.1015,0,1.0629,1.0619,1.0663,1.0707,1.0744,1.0775,1.0803,1.0832,1.0804,1.0843,1.0899,1.0929,1.0989,1.1041,1.1081,1.1088,1.1049,1.1042,1.1064,1.1078,1.1086,1.1087,1.08,1.1036,1.1034,1.1032,1.1031,1.103,1.0784,1.0837,1.0857,1.0909,1.0928,1.0955,1.1004,1.1003,1.1049,1.1097,1.1076,1.1142,1.1162,1.1212,1.1226,1.1277,1.1241,1.1272,1.128,1.1289,1.1302,1.1076,1.1284,1.1283,1.1282,1.1282,1.1281,0,1.0993,1.1005,1.1053,1.1095,1.1137,1.1096,1.1126,1.1164,1.1223,1.1245,1.1286,1.1352,1.1403,1.1403,1.145,1.1492,1.1475,1.1506,1.1504,1.1507,1.1329,1.1307,1.1519,1.1519,1.1519,1.1519,1.1519,1.1519,1.1107,1.1196,1.1189,1.1287,1.1297,1.1363,1.1384,1.141,1.1428,1.1505,1.1548,1.1548,1.1563,1.1612,1.1657,1.1656,1.1677,1.1716,1.1708,1.1542,1.1519,1.1497,1.1476,1.172,1.172,1.1883,1.1884,1.1885]},{"header":{"parameterUnit":"m.s-1","parameterCategory":1,"la1":30.2991,"la2":30.254,"lo1":-89.0895,"lo2":-89.0444,"dy":0.0017,"dx":0.0017,"nx":28,"ny":28,"refTime":"2023-09-09T03:00:00:Z","depth":0,"parameterNumber":3,"parameterNumberName":"V-component_of_WINDS"},"data":[0,0,0,0,0,0,0,0,0,0,0,0,0,0,0,0,0,0,0,0,0,0,0,0,0,0,0,0,0,0,0,0,0,0,0,0,0,0,0,0,0,0,0,0,0,0,0,0,0,0,0,0,0,0,0,0,0,0,-1.3629,-1.363,0,-1.3718,-1.3719,-1.372,-1.3786,-1.3786,-1.3787,-1.3787,-1.3873,-1.3875,-1.3877,0,0,0,0,0,0,0,0,0,0,0,0,0,-1.3508,-1.351,-1.3629,-1.363,-1.3631,-1.3718,-1.372,-1.3721,-1.3786,-1.3786,-1.3787,-1.3788,-1.3873,-1.3875,-1.3877,0,0,0,0,0,0,0,0,0,0,0,0,0,-1.3575,-1.3511,-1.3628,-1.3674,-1.3679,-1.3718,-1.372,-1.3721,-1.3785,-1.3786,-1.3787,-1.3788,-1.3872,-1.3875,-1.3877,-1.3877,0,0,-1.3885,-1.3886,0,0,0,0,0,0,0,0,-1.3571,-1.358,-1.3666,-1.3671,-1.3677,-1.3742,-1.3709,-1.3773,-1.3785,-1.3745,-1.3787,-1.3788,-1.3829,-1.3835,-1.385,-1.3881,-1.3884,-1.3886,-1.3887,-1.3888,-1.3889,0,0,0,0,0,0,0,-1.3567,-1.3576,-1.3664,-1.3667,-1.3674,-1.3688,-1.3699,-1.3721,-1.3781,-1.3748,-1.3753,-1.3763,-1.3831,-1.3847,-1.3852,-1.3886,-1.3885,-1.3888,-1.3889,-1.3891,-1.392,-1.3919,0,0,0,0,0,0,-1.3556,-1.3572,-1.3661,-1.3667,-1.3625,-1.369,-1.3701,-1.372,-1.3781,-1.3791,-1.3763,-1.3766,-1.3842,-1.3849,-1.3855,-1.3858,-1.3888,-1.3891,-1.3892,-1.392,-1.3919,-1.3919,0,0,0,0,0,0,-1.3553,-1.3563,-1.3658,-1.3621,-1.3634,-1.3691,-1.3711,-1.3721,-1.3737,-1.3791,-1.3802,-1.3768,-1.3843,-1.3852,-1.3871,-1.3862,-1.3892,-1.3894,-1.3921,-1.392,-1.3919,-1.3863,0,0,0,0,0,0,-1.3549,-1.3562,-1.3563,-1.362,-1.3636,-1.3673,-1.3711,-1.3722,-1.3742,-1.3747,-1.3799,-1.3808,-1.3844,-1.3867,-1.3874,-1.3866,-1.3896,-1.3922,-1.3921,-1.3919,-1.3866,-1.386,-1.3855,0,0,0,0,0,-1.3545,-1.3543,-1.3563,-1.3573,-1.3639,-1.3673,-1.3681,-1.3724,-1.3741,-1.3742,-1.3777,-1.3807,-1.3862,-1.3868,-1.3877,-1.3869,-1.3923,-1.3921,-1.392,-1.3868,-1.3861,-1.3855,0,0,0,0,0,0,-1.3481,-1.3551,-1.3574,-1.3591,-1.3626,-1.3683,-1.3686,-1.3715,-1.3744,-1.3748,-1.3798,-1.3809,-1.3823,-1.3849,-1.3854,-1.3872,-1.3896,-1.3896,-1.3854,-1.3848,-1.3843,-1.3835,-1.3899,0,0,0,0,0,-1.3469,-1.3492,-1.3552,-1.3561,-1.3577,-1.3628,-1.3645,-1.3675,-1.3712,-1.3726,-1.3763,-1.3796,-1.3821,-1.3836,-1.3862,-1.387,-1.3882,-1.387,-1.3864,-1.3859,-1.3858,-1.3863,-1.3858,-1.3913,-1.3913,-1.3913,0,0,-1.3444,-1.3485,-1.3497,-1.3549,-1.3579,-1.36,-1.364,-1.3661,-1.3676,-1.3729,-1.375,-1.3778,-1.3818,-1.3832,-1.3839,-1.3853,-1.3845,-1.3857,-1.3853,-1.3854,-1.386,-1.3855,-1.385,-1.3911,-1.3912,-1.3912,0,0,-1.3409,-1.3444,-1.3455,-1.3485,-1.3531,-1.3565,-1.3568,-1.3622,-1.3643,-1.3665,-1.3705,-1.3723,-1.3766,-1.3793,-1.3812,-1.3788,-1.3815,-1.3795,-1.3765,-1.377,-1.3765,-1.3762,-1.3752,-1.3748,-1.3794,-1.3793,-1.3793,0,-1.3372,-1.3407,-1.3456,-1.3475,-1.3496,-1.3547,-1.3557,-1.3583,-1.3634,-1.3647,-1.3663,-1.3717,-1.3747,-1.3767,-1.3762,-1.3776,-1.3779,-1.3788,-1.3763,-1.3759,-1.3757,-1.3748,-1.3744,-1.3791,-1.3791,-1.3791,-1.3791,0,-1.3358,-1.3382,-1.3385,-1.3435,-1.3457,-1.3471,-1.352,-1.3536,-1.3565,-1.3597,-1.3618,-1.3658,-1.3692,-1.3699,-1.3727,-1.3723,-1.373,-1.3753,-1.3779,-1.3748,-1.374,-1.3737,-1.3786,-1.3787,-1.3788,-1.3789,0,0,-1.3284,-1.3362,-1.3362,-1.3386,-1.3441,-1.3459,-1.3475,-1.3511,-1.3522,-1.3556,-1.357,-1.3605,-1.3627,-1.3648,-1.368,-1.3684,-1.3661,-1.3706,-1.3708,-1.3695,-1.3657,-1.3638,-1.3633,-1.368,-1.368,-1.368,-1.3653,0,-1.3256,-1.329,-1.3335,-1.3352,-1.3373,-1.3423,-1.3437,-1.3471,-1.3501,-1.3523,-1.3556,-1.358,-1.3608,-1.3621,-1.3628,-1.3662,-1.3653,-1.3665,-1.3691,-1.3691,-1.3678,-1.363,-1.361,-1.3583,-1.3651,-1.365,-1.365,0,-1.3228,-1.3261,-1.3281,-1.3334,-1.3345,-1.3357,-1.3393,-1.3414,-1.3453,-1.3475,-1.35,-1.3534,-1.3552,-1.3576,-1.36,-1.3607,-1.3621,-1.3639,-1.3639,-1.3642,-1.3667,-1.3629,-1.3575,-1.357,-1.3646,-1.3646,-1.3647,0,-1.317,-1.3219,-1.3238,-1.3256,-1.3319,-1.3326,-1.3352,-1.3393,-1.3411,-1.3443,-1.3455,-1.3487,-1.3504,-1.3527,-1.3569,-1.3583,-1.3588,-1.3616,-1.3605,-1.3603,-1.3602,-1.3601,-1.3548,-1.3614,-1.3614,-1.3614,-1.3614,0,-1.3133,-1.3143,-1.3212,-1.3223,-1.3235,-1.3286,-1.3296,-1.3327,-1.3363,-1.3379,-1.3424,-1.3438,-1.3493,-1.3513,-1.3545,-1.356,-1.3567,-1.3584,-1.3592,-1.3579,-1.3576,-1.3587,-1.3589,-1.3613,-1.3613,-1.3613,-1.3613,0,-1.3069,-1.3117,-1.3139,-1.3198,-1.3213,-1.3219,-1.3268,-1.3279,-1.3314,-1.3334,-1.3341,-1.3394,-1.342,-1.3464,-1.3503,-1.3525,-1.3532,-1.3547,-1.3519,-1.3523,-1.3509,-1.3509,-1.3459,-1.3454,-1.3524,-1.3524,-1.3523,0,-1.3042,-1.3051,-1.311,-1.3126,-1.3151,-1.3174,-1.3194,-1.3245,-1.3263,-1.3309,-1.3314,-1.3344,-1.3371,-1.341,-1.345,-1.348,-1.3495,-1.3475,-1.3499,-1.3485,-1.3492,-1.349,-1.3491,-1.3469,-1.3468,-1.3467,-1.3466,0,-1.2987,-1.301,-1.3038,-1.3073,-1.3096,-1.3126,-1.3158,-1.3167,-1.3225,-1.3243,-1.3271,-1.3291,-1.3332,-1.336,-1.3396,-1.3421,-1.3452,-1.3459,-1.3458,-1.3443,-1.3425,-1.3433,-1.3501,-1.3459,-1.346,-1.346,-1.3461,-1.3461,-1.2939,-1.2949,-1.2993,-1.3022,-1.3052,-1.3081,-1.3094,-1.3131,-1.3156,-1.3193,-1.3222,-1.3247,-1.3286,-1.3338,-1.3361,-1.3381,-1.3396,-1.3394,-1.3393,-1.3391,-1.3385,-1.3424,-1.3388,-1.3388,-1.3389,-1.3389,-1.3389,0,-1.2885,-1.2916,-1.2942,-1.2987,-1.3009,-1.304,-1.3077,-1.3093,-1.3115,-1.315,-1.3176,-1.3208,-1.3236,-1.3279,-1.331,-1.3318,-1.3333,-1.3324,-1.3323,-1.3328,-1.3372,-1.3369,-1.3311,-1.3311,-1.3311,-1.3311,-1.3311,-1.3311,-1.2859,-1.2877,-1.2906,-1.2939,-1.297,-1.2996,-1.3015,-1.3041,-1.3069,-1.3103,-1.3127,-1.3157,-1.3194,-1.3229,-1.3255,-1.3268,-1.3276,-1.3262,-1.3278,-1.3318,-1.3325,-1.3331,-1.3329,-1.3264,-1.3264,-1.3232,-1.3232,-1.3232]}]]